This demonstration page uses our WeatherBlox Daily Observations layout. Learn more.

Left ArrowRight Arrow

39.12711, -84.51439

Hourly Observations for May 17, 2018

Temp ( °F °C ) Dew Point ( °F °C ) Humidity (%) Winds ( mph kmh ) Pressure ( in mb ) Visibility ( mi km ) Precip ( " mm )
12:03 am 00:03 Mostly Cloudy with Mist and Fog 67 19.4 67 19.4 100 100 Calm 29.91 1013 3 4 0.00 0.00
12:14 am 00:14 Mostly Cloudy with Mist and Fog 68 20 68 20 100 100 Calm 29.91 1013 4 6 0.00 0.00
12:53 am 00:53 Clear with Mist and Fog 67 19.4 67 19.4 100 100 Calm 29.93 1013 3 4 0.00 0.00
1:01 am 01:01 Clear with Mist and Fog 67 19.4 67 19.4 100 100 Calm 29.91 1013 1 1 0.00 0.00
1:05 am 01:05 Mostly Cloudy with Fog 66 18.9 66 18.9 100 100 Calm 29.91 1013 0 0 0.00 0.00
1:13 am 01:13 Mostly Clear with Fog 66 18.9 66 18.9 100 100 Calm 29.91 1013 1 1 0.00 0.00
1:37 am 01:37 Mostly Cloudy with Mist and Fog 66 18.9 66 18.9 100 100 Calm 29.91 1013 2 2 0.00 0.00
1:53 am 01:53 Cloudy with Mist and Fog 66 18.9 66 18.9 100 100 NE 3 6 29.92 1013 4 6 0.00 0.00
2:53 am 02:53 Mostly Clear with Mist and Fog 67 19.4 66 18.9 97 97 NE 3 6 29.91 1013 5 8 0.00 0.00
3:53 am 03:53 Mostly Cloudy with Mist and Fog 66 18.9 66 18.9 100 100 Calm 29.92 1013 4 6 0.00 0.00
4:32 am 04:32 Mostly Cloudy with Mist and Fog 67 19.4 66 18.9 97 97 NNE 6 9 29.91 1013 6 10 0.00 0.00
4:41 am 04:41 Partly Cloudy with Mist and Fog 67 19.4 66 18.9 97 97 NNE 6 9 29.91 1013 6 10 0.00 0.00
4:53 am 04:53 Mostly Clear with Mist and Fog 67 19.4 66 18.9 97 97 NNE 5 7 29.92 1013 6 10 0.00 0.00
5:53 am 05:53 Clear with Mist and Fog 66 18.9 65 18.3 96 96 NNE 3 6 29.92 1013 5 8 0.00 0.00
6:26 am 06:26 Partly Cloudy with Mist and Fog 64 17.8 64 17.8 100 100 Calm 29.91 1013 2 3 0.00 0.00
6:44 am 06:44 Partly Cloudy with Mist and Fog 64 17.8 64 17.8 100 100 undefined N/A 29.91 1013 2 3 0.00 0.00
6:53 am 06:53 Partly Cloudy with Mist and Fog 64 17.8 64 17.8 100 100 NNE 6 9 29.94 1014 6 10 0.00 0.00
7:53 am 07:53 Sunny with Mist and Fog 67 19.4 65 18.3 93 93 NNE 6 9 29.95 1014 6 10 0.00 0.00
8:53 am 08:53 Sunny with Mist and Fog 70 21.1 66 18.9 87 87 NE 6 9 29.96 1015 6 10 0.00 0.00
9:53 am 09:53 Sunny 73 22.8 67 19.4 81 81 ENE 6 9 29.97 1015 8 13 0.00 0.00
10:53 am 10:53 Partly Cloudy 76 24.4 67 19.4 74 74 ENE 9 15 29.96 1015 9 14 0.00 0.00
11:53 am 11:53 Mostly Cloudy 77 25 66 18.9 69 69 NE 9 15 29.97 1015 10 16 0.00 0.00
12:53 pm 12:53 Mostly Sunny 80 26.7 67 19.4 64 64 NE 12 19 29.96 1015 10 16 0.00 0.00
1:53 pm 13:53 Partly Cloudy 80 26.7 66 18.9 62 62 NE 9 15 29.94 1014 10 16 0.00 0.00
2:53 pm 14:53 Mostly Cloudy 80 26.7 66 18.9 62 62 ENE 7 11 29.93 1014 10 16 0.00 0.00
3:53 pm 15:53 Mostly Cloudy 81 27 64 18 58 58 N 8 13 29.91 1013 10 16 0.00 0.00
4:53 pm 16:53 Partly Cloudy with Thunderstorms 73 22.8 64 17.8 74 74 ENE 12 19 29.91 1013 6 10 0.00 0.00
5:04 pm 17:04 Mostly Cloudy with Light Rain 70 21.1 66 18.9 87 87 ENE 12 19 29.91 1013 5 8 0.00 0.03
5:28 pm 17:28 Cloudy with Nearby Thunderstorms 70 21.1 68 20 93 93 NE 3 6 29.91 1013 8 13 0.03 0.76
5:53 pm 17:53 Mostly Cloudy 72 22.2 69 20.6 91 91 NNE 6 9 29.91 1013 8 13 0.03 0.76
6:53 pm 18:53 Mostly Cloudy with Light Rain 72 22.2 69 20.6 91 91 NNE 7 11 29.91 1013 8 13 0.01 0.25
7:53 pm 19:53 Cloudy with Light Rain 70 21.1 69 20.6 97 97 Calm 29.91 1013 10 16 0.00 0.03
8:53 pm 20:53 Cloudy with Mist and Fog 70 21.1 69 20.6 97 97 ENE 5 7 29.94 1014 6 10 0.01 0.25
9:53 pm 21:53 Cloudy with Mist and Fog 69 20.6 69 20.6 100 100 Calm 29.94 1014 6 10 0.00 0.00
10:53 pm 22:53 Cloudy with Mist and Fog 69 20.6 69 20.6 100 100 NE 6 9 29.94 1014 6 10 0.00 0.00
11:53 pm 23:53 Mostly Cloudy 69 20.6 67 19.4 93 93 NE 6 9 29.94 1014 9 14 0.00 0.00

Powered by AerisWeather